Hourly Data Report for March 07, 2004

TORONTO CITY
ONTARIO

43°40'00.000" N
79°24'00.000" W
112.50 m
6158355
71508
XTO

Download Data

Hourly Data (March 2004)
Hourly Data Report for March 7, 2004
TIME
LST
Temp Definition
°C
Dew Point Definition
°C
Rel Hum Definition
%
Precip. Amount Definition
mm

Wind Dir Definition
10's deg

Wind Spd Definition
km/h
Visibility Definition
km
Stn Press Definition
kPa
Hmdx Definition


Wind Chill Definition


Weather Definition


00:00 0.1 -3.9 74   LegendMM LegendMM LegendMM 100.34     LegendNANA
01:00 0.1 -4.1 73   LegendMM LegendMM LegendMM 100.36     LegendNANA
02:00 -0.2 -4.2 74   LegendMM LegendMM LegendMM 100.35     LegendNANA
03:00 -0.5 -4.5 74   LegendMM LegendMM LegendMM 100.30     LegendNANA
04:00 -0.2 -4.0 76   LegendMM LegendMM LegendMM 100.26     LegendNANA
05:00 -0.2 -4.0 76   LegendMM LegendMM LegendMM 100.19     LegendNANA
06:00 -0.2 -4.0 76   LegendMM LegendMM LegendMM 100.10     LegendNANA
07:00 -0.2 -3.5 78   LegendMM LegendMM LegendMM 100.09     LegendNANA
08:00 0.2 -3.1 78   LegendMM LegendMM LegendMM 100.03     LegendNANA
09:00 0.5 -2.3 81   LegendMM LegendMM LegendMM 99.94     LegendNANA
10:00 0.6 -2.4 80   LegendMM LegendMM LegendMM 99.84     LegendNANA
11:00 1.0 -1.6 83   LegendMM LegendMM LegendMM 99.71     LegendNANA
12:00 0.9 -1.6 83   LegendMM LegendMM LegendMM 99.56     LegendNANA
13:00 -0.2 -0.8 96   LegendMM LegendMM LegendMM 99.47     LegendNANA
14:00 -0.1 -0.3 99   LegendMM LegendMM LegendMM 99.31     LegendNANA
15:00 0.3 0.2 99   LegendMM LegendMM LegendMM 99.27     LegendNANA
16:00 0.7 0.6 99   LegendMM LegendMM LegendMM 99.20     LegendNANA
17:00 1.0 0.9 99   LegendMM LegendMM LegendMM 99.23     LegendNANA
18:00 0.7 0.6 99   LegendMM LegendMM LegendMM 99.23     LegendNANA
19:00 0.8 0.7 99   LegendMM LegendMM LegendMM 99.24     LegendNANA
20:00 0.9 0.9 100   LegendMM LegendMM LegendMM 99.26     LegendNANA
21:00 1.0 1.0 100   LegendMM LegendMM LegendMM 99.27     LegendNANA
22:00 0.8 0.8 100   LegendMM LegendMM LegendMM 99.23     LegendNANA
23:00 0.4 0.4 100   LegendMM LegendMM LegendMM 99.22     LegendNANA

Notes on Data Quality.

Legend

  • E = Estimated
  • M = Missing
  • NA = Not Available*
  • [empty] = Indicates an unobserved value
Date modified: